Regional Weather Roundup
Issued by NWS

Home | Current Version | Previous Version | Graphics & Text | Print | Product List | Glossary On
Versions: 1 2 3 4 5 6 7 8 9 10 11 12 13 14 15 16 17 18 19 20 21 22 23 24 25 26 27 28 29 30 31 32 33 34 35 36 37 38 39 40 41 42 43 44 45 46 47 48 49 50
224
ASUS44 KMEG 260400
RWRTN
TENNESSEE HOURLY STATE WEATHER ROUNDUP
NATIONAL WEATHER SERVICE MEMPHIS TN
1100 PM CDT THU AUG 25 2016

TNZ002-004-019-021-049-052-054-088>092-260500-
WEST TENNESSEE

CITY           SKY/WX    TMP DP  RH WIND       PRES   REMARKS
MEMPHIS INTL   CLOUDY    79  73  82 CALM      30.09R
NWS MEMPHIS      N/A     77 N/A N/A MISG        N/A
JACKSON        CLEAR     77  76  96 CALM      30.10R
DYERSBURG      CLOUDY    84  75  74 MISG      30.08S HX  92
UNION CITY     CLEAR     75  75 100 SE3       30.07R
PARIS          CLEAR     73  72  94 CALM      30.11R
LEXINGTON      CLEAR     75  75 100 CALM      30.10R
$$

TNZ008-025-027-028-033-062-065-066-260500-
NORTH MIDDLE TENNESSEE

CITY           SKY/WX    TMP DP  RH WIND       PRES   REMARKS
NASHVILLE      CLEAR     78  75  90 CALM      30.11R
CLARKSVILLE    CLEAR     77  74  90 CALM      30.09S
COOKEVILLE     CLEAR     73  73 100 CALM      30.13R
CROSSVILLE     CLEAR     72  71  97 CALM      30.19S
$$

TNZ061-075-076-078-094-096-097-260500-
SOUTH MIDDLE TENNESSEE

CITY           SKY/WX    TMP DP  RH WIND       PRES   REMARKS
WINCHESTER     CLEAR     73  72  94 CALM      30.14S
SHELBYVILLE    CLEAR     75  75 100 CALM      30.13S
$$

TNZ017-018-042-046-047-260500-
NORTHEAST TENNESSEE

CITY           SKY/WX    TMP DP  RH WIND       PRES   REMARKS
TRI CITIES     PTCLDY    72  70  93 CALM      30.16R
$$

TNZ012-013-036-069-073-074-260500-
CENTRAL EAST TENNESSEE

CITY           SKY/WX    TMP DP  RH WIND       PRES   REMARKS
KNOXVILLE      PTCLDY    78  72  81 CALM      30.11S
OAK RIDGE      CLEAR     77  73  87 CALM      30.13S
$$

TNZ083-085-099-260500-
SOUTHEAST TENNESSEE

CITY           SKY/WX    TMP DP  RH WIND       PRES   REMARKS
CHATTANOOGA    CLEAR     81  72  74 CALM      30.12R
$$

SKY/WX REPORTED AS FAIR MEANS FEW OR NO CLOUDS BELOW
12 THOUSAND FEET.





USA.gov is the U.S. government's official web portal to all federal, state and local government web resources and services.